FREGAT DEB, 45831

Orbit data source: Space-Track

FREGAT DEB, 45831 is space debris in LEO originally from a launch on Mon, 18 Jul 2011 UTC launched from the Tyuratam Missile And Space Complex (TTMTR). Debris objects in space refer to the collection of defunct objects orbiting the Earth. Examples of debris include non-operational satellites, rocket bodies, and fragments generated from explosions, collisions, or faulty payload assembly.

Loading next visibility...
Identifier
45831, 2011-037BR
Orbit
LEO
Country
Flag of CISCIS
Related business
Manufacturer
Lavochkin
Mission
Spacecraft
Bus & Motor
Unknown
Mass
Unknown
Launch date (UTC)
2011-07-18 (14 years ago)
Launch vehicle
Unknown
Launch site
Tyuratam Missile And Space Complex (TTMTR)
Object type
Payload
Rocket body
Debris
Shape & HBR
Unknown
Radar Cross Section
Small (<0.1 m²)

Expand to show TLE details & history
Last TLE update: 1 week ago

TLE from 1 week ago
0 FREGAT DEB
1 45831U 11037BR  25253.79160635  .00002136  00000-0  11596-2 0  9993
2 45831  51.4428  55.8991 1639451 224.0298 121.7900 11.53638652221612
Epoch: 2025-09-10T18:59Z
TLE epoch observation values (Epoch: 2025-09-10T18:59:54.788Z)
Latitude
0.00001°
Longitude
140.85787°
Altitude
2,750.929 km
Speed
6.259 km/s
True Right ascension
03h 43m 35s
True Declination
0° 00' 00"
Sunlit
Object was in daylight at epoch
Visualization orbit readout
Latitude
Unknown
Longitude
Unknown
Altitude
Unknown
Speed
Unknown
Apparent Right ascension
Unknown
Apparent Declination
Unknown
Sunlit
N/A
Visualization observer readout
Local Sidereal Time
22:52:30
Azimuth
Unknown
Elevation
Unknown
Doppler factor
Unknown
Orbital elements
Apogee altitude
3,252.289 km
Perigee altitude
539.341 km
Semi-major axis
8,273.952 km
Eccentricity
0.16395
Inclination
51.4428°
RAAN
55.8991°
Arg. of periapsis
224.0298°
True anomaly
136.05116°
Mean anomaly
121.79°
Eccentric anomaly
129.08159°
Mean motion
2.88386 °/min
Orbital period
124.83 mins
BSTAR
0.0011596
Loading maneuver chart data...
Computing Atmospheric mass density...
Loading historical data...
Loading historical data...
Loading historical data...
Loading historical data...
Loading historical data...
Loading historical data...
Loading historical data...

Documentation

Showing up to 5 results
|